Detroit Metro, MI

1:28 AM EDT on April 30, 2017 (GMT -0400)
Detroit Metro Wayne County

Weather History for KDTW - October, 2014

Change the Weather History Date:

Sunday, October 12, 2014

  Actual Average Record
Temperature  
Mean Temperature 48 °F 54 °F  
Max Temperature 60 °F 63 °F 84 °F (1995)
Min Temperature 35 °F 44 °F 26 °F (1875)
Degree Days  
Heating Degree Days 17 12  
Month to date heating degree days 146 118  
Since 1 July heating degree days 267 232  
Cooling Degree Days 0 0  
Month to date cooling degree days 0 7  
Year to date cooling degree days 704 802  
Moisture  
Dew Point 38 °F    
Average Humidity 65    
Maximum Humidity 89    
Minimum Humidity 40    
Precipitation  
Precipitation 0.00 in 0.08 in 1.25 in (1901)
Month to date precipitation 0.66 1.01  
Year to date precipitation 32.79 26.71  
Snow  
Snow 0.00 in 0.00 in 0.20 in (2006)
Month to date snowfall 0.0 0.0  
Since 1 July snowfall 0.0 0.0  
Since 1 September snowfall 0.0 0.0  
Snow Depth 0.00 in    
Sea Level Pressure  
Sea Level Pressure 30.16 in    
Wind  
Wind Speed 5 mph (East)    
Max Wind Speed 16 mph    
Max Gust Speed 21 mph    
Visibility 10 miles    
Events      
T = Trace of Precipitation, MM = Missing Value Source: NWS Daily Summary

Daily Weather History Graph

Daily Weather History Graph

Search for Another Location

Airport or City:

Trip Planner

Search our weather history database for the weather conditions in past years. The results will help you decide how hot, cold, wet, or windy it might be!

Date:

Astronomy

Oct. 12, 2014 Rise Set
Actual Time 7:42 AM EDT 6:56 PM EDT
Civil Twilight 7:14 AM EDT 7:24 PM EDT
Nautical Twilight 6:42 AM EDT 7:56 PM EDT
Astronomical Twilight 6:09 AM EDT 8:29 PM EDT
Moon 10:09 PM EDT (10/12) 12:07 PM EDT (10/12)
Length of Visible Light 12h 09m
Length of Day
11h 13m
Waning Gibbous, 79% of the Moon is Illuminated
Oct 12
Waning Gibbous
Oct 15
Last Quarter
Oct 23
New
Oct 30
First Quarter
Nov 6
Full

Hourly Weather History & Observations

Time (EDT) Temp. Windchill Dew Point Humidity Pressure Visibility Wind Dir Wind Speed Gust Speed Precip Events Conditions
12:53 AM 41.0 °F - 35.1 °F 79% 30.23 in 10.0 mi Calm Calm - N/A   Clear
1:53 AM 39.9 °F - 34.0 °F 79% 30.24 in 10.0 mi Calm Calm - N/A   Clear
2:53 AM 37.9 °F - 34.0 °F 86% 30.23 in 10.0 mi Calm Calm - N/A   Clear
3:53 AM 37.0 °F - 34.0 °F 89% 30.22 in 9.0 mi Calm Calm - N/A   Clear
4:53 AM 37.4 °F - 33.8 °F 87% 30.22 in 10.0 mi Calm Calm - N/A   Clear
5:53 AM 37.0 °F - 34.0 °F 89% 30.22 in 10.0 mi Calm Calm - N/A   Clear
6:53 AM 36.0 °F - 32.0 °F 86% 30.22 in 10.0 mi Calm Calm - N/A   Clear
7:53 AM 37.0 °F - 33.1 °F 86% 30.23 in 9.0 mi Calm Calm - N/A   Scattered Clouds
8:53 AM 39.9 °F - 34.0 °F 79% 30.23 in 10.0 mi Calm Calm - N/A   Scattered Clouds
9:53 AM 46.0 °F 44.8 °F 37.9 °F 73% 30.23 in 10.0 mi ENE 3.5 mph - N/A   Scattered Clouds
10:53 AM 54.0 °F - 41.0 °F 62% 30.22 in 10.0 mi East 8.1 mph - N/A   Partly Cloudy
11:53 AM 55.9 °F - 41.0 °F 57% 30.21 in 10.0 mi Variable 6.9 mph - N/A   Scattered Clouds
12:53 PM 57.0 °F - 39.0 °F 51% 30.19 in 10.0 mi SE 9.2 mph - N/A   Scattered Clouds
1:53 PM 59.0 °F - 39.0 °F 48% 30.16 in 10.0 mi East 12.7 mph 18.4 mph N/A   Partly Cloudy
2:53 PM 60.1 °F - 37.9 °F 44% 30.12 in 10.0 mi ENE 10.4 mph - N/A   Partly Cloudy
3:53 PM 59.0 °F - 37.0 °F 44% 30.10 in 10.0 mi ENE 12.7 mph - N/A   Partly Cloudy
4:53 PM 59.0 °F - 35.6 °F 42% 30.07 in 10.0 mi East 9.2 mph - N/A   Scattered Clouds
5:53 PM 57.0 °F - 37.0 °F 47% 30.09 in 10.0 mi East 8.1 mph - N/A   Scattered Clouds
6:53 PM 55.0 °F - 39.0 °F 55% 30.08 in 10.0 mi East 5.8 mph - N/A   Mostly Cloudy
7:53 PM 54.0 °F - 41.0 °F 62% 30.07 in 10.0 mi ENE 6.9 mph - N/A   Mostly Cloudy
8:53 PM 54.0 °F - 42.1 °F 64% 30.07 in 10.0 mi ENE 5.8 mph - N/A   Overcast
9:53 PM 53.1 °F - 44.1 °F 71% 30.06 in 10.0 mi ENE 6.9 mph - N/A   Overcast
10:53 PM 53.1 °F - 46.0 °F 77% 30.03 in 10.0 mi ENE 5.8 mph - N/A   Overcast
11:53 PM 52.0 °F - 46.9 °F 83% 30.03 in 10.0 mi East 5.8 mph - N/A   Mostly Cloudy